Private Wetterstation Wechselburg
Wetterdaten: Mittwoch, 29.02.2012
Datum Zeit Temp. +2m Bodentemp. Temp.+5cm Temp. Wind Windchill X Diff Temp. Feuchte +2m Feuchte +5cm Sonnenschein Luftdruck Regen Wind Richtung Richtung Sonnenschein UV Taupunkt Windchill Windben
29.02.2012 00:00 8,5 C 8,6 C 8,3 C 8,3 C 7,9 C 0,0 C 91 % 94 % 0 % 1021,3 hPa 0,0 l/m 6,4 km/h (2 Bft) W-SW 247 0 min 0,0 UV-I 7,1 C 6,9 C 9,2 km/h (2 Bft)
29.02.2012 00:14 8,5 C 8,6 C 8,3 C 8,4 C 8,1 C 0,0 C 91 % 94 % 0 % 1021,6 hPa 0,0 l/m 6,0 km/h (2 Bft) W 270 0 min 0,0 UV-I 7,1 C 7,3 C 9,2 km/h (2 Bft)
29.02.2012 00:19 8,5 C 8,6 C 8,3 C 8,3 C 8,0 C 0,0 C 91 % 94 % 0 % 1021,6 hPa 0,0 l/m 6,6 km/h (2 Bft) W-SW 247 0 min 0,0 UV-I 7,1 C 7,0 C 10,0 km/h (2 Bft)
29.02.2012 00:25 8,5 C 8,6 C 8,3 C 8,3 C 7,9 C 0,0 C 91 % 94 % 0 % 1021,6 hPa 0,0 l/m 6,3 km/h (2 Bft) SW 225 0 min 0,0 UV-I 7,1 C 7,0 C 7,1 km/h (2 Bft)
29.02.2012 00:30 8,5 C 8,6 C 8,3 C 8,4 C 8,1 C 0,0 C 91 % 94 % 0 % 1021,6 hPa 0,0 l/m 6,0 km/h (2 Bft) SW 225 0 min 0,0 UV-I 7,1 C 7,3 C 6,0 km/h (2 Bft)
29.02.2012 00:35 8,5 C 8,7 C 8,3 C 8,4 C 8,1 C 0,0 C 91 % 94 % 0 % 1021,6 hPa 0,0 l/m 5,6 km/h (1 Bft) SW 225 0 min 0,0 UV-I 7,1 C 7,4 C 10,6 km/h (2 Bft)
29.02.2012 00:40 8,5 C 8,7 C 8,3 C 8,3 C 8,0 C 0,0 C 91 % 94 % 0 % 1021,6 hPa 0,0 l/m 6,0 km/h (2 Bft) SW 225 0 min 0,0 UV-I 7,1 C 7,2 C 7,9 km/h (2 Bft)
29.02.2012 00:45 8,5 C 8,7 C 8,4 C 8,3 C 7,8 C 0,0 C 91 % 94 % 0 % 1021,6 hPa 0,0 l/m 6,9 km/h (2 Bft) W 270 0 min 0,0 UV-I 7,1 C 6,7 C 9,2 km/h (2 Bft)
29.02.2012 00:50 8,5 C 8,7 C 8,4 C 8,3 C 7,9 C 0,0 C 91 % 94 % 0 % 1021,6 hPa 0,0 l/m 6,4 km/h (2 Bft) W-SW 247 0 min 0,0 UV-I 7,1 C 6,9 C 6,9 km/h (2 Bft)
29.02.2012 00:55 8,6 C 8,7 C 8,3 C 8,4 C 8,1 C 0,0 C 91 % 94 % 0 % 1021,9 hPa 0,0 l/m 5,8 km/h (2 Bft) W-SW 247 0 min 0,0 UV-I 7,2 C 7,3 C 6,9 km/h (2 Bft)
29.02.2012 01:00 8,5 C 8,7 C 8,4 C 8,4 C 8,1 C 0,0 C 91 % 94 % 0 % 1021,9 hPa 0,0 l/m 5,8 km/h (2 Bft) W-SW 247 0 min 0,0 UV-I 7,1 C 7,3 C 9,0 km/h (2 Bft)
29.02.2012 01:15 8,6 C 8,7 C 8,4 C 8,3 C 7,8 C 0,0 C 91 % 94 % 0 % 1021,2 hPa 0,0 l/m 7,6 km/h (2 Bft) N 0 0 min 0,0 UV-I 7,2 C 6,5 C 7,2 km/h (2 Bft)
29.02.2012 01:20 8,6 C 8,7 C 8,4 C 8,3 C 7,8 C 0,0 C 91 % 94 % 0 % 1021,2 hPa 0,0 l/m 7,6 km/h (2 Bft) SW 225 0 min 0,0 UV-I 7,2 C 6,5 C 12,7 km/h (3 Bft)
29.02.2012 01:25 8,6 C 8,7 C 8,4 C 8,4 C 7,7 C 0,0 C 91 % 94 % 0 % 1021,2 hPa 0,0 l/m 8,0 km/h (2 Bft) W-SW 247 0 min 0,0 UV-I 7,2 C 6,3 C 13,4 km/h (3 Bft)
29.02.2012 01:30 8,7 C 8,7 C 8,4 C 8,5 C 7,6 C 0,0 C 91 % 94 % 0 % 1021,2 hPa 0,0 l/m 8,5 km/h (2 Bft) W-SW 247 0 min 0,0 UV-I 7,3 C 6,1 C 9,5 km/h (2 Bft)
29.02.2012 01:35 8,7 C 8,7 C 8,5 C 8,5 C 7,7 C 0,0 C 91 % 94 % 0 % 1021,7 hPa 0,0 l/m 8,0 km/h (2 Bft) S-SW 202 0 min 0,0 UV-I 7,3 C 6,3 C 5,1 km/h (1 Bft)
29.02.2012 01:40 8,7 C 8,7 C 8,4 C 8,4 C 7,8 C 0,0 C 91 % 94 % 0 % 1021,7 hPa 0,0 l/m 7,2 km/h (2 Bft) W-SW 247 0 min 0,0 UV-I 7,3 C 6,6 C 18,3 km/h (3 Bft)
29.02.2012 01:45 8,7 C 8,7 C 8,4 C 8,4 C 7,8 C 0,0 C 91 % 94 % 0 % 1021,7 hPa 0,0 l/m 7,4 km/h (2 Bft) W-SW 247 0 min 0,0 UV-I 7,3 C 6,6 C 8,7 km/h (2 Bft)
29.02.2012 01:50 8,7 C 8,7 C 8,5 C 8,5 C 7,6 C 0,0 C 91 % 94 % 0 % 1021,7 hPa 0,0 l/m 8,7 km/h (2 Bft) SW 225 0 min 0,0 UV-I 7,3 C 6,0 C 15,1 km/h (3 Bft)
29.02.2012 01:55 8,6 C 8,7 C 8,4 C 8,4 C 7,4 C 0,0 C 91 % 94 % 0 % 1021,6 hPa 0,0 l/m 9,2 km/h (2 Bft) SW 225 0 min 0,0 UV-I 7,2 C 5,7 C 8,7 km/h (2 Bft)
29.02.2012 02:00 8,7 C 8,7 C 8,4 C 8,3 C 7,4 C 0,0 C 91 % 94 % 0 % 1021,6 hPa 0,0 l/m 9,3 km/h (2 Bft) SW 225 0 min 0,0 UV-I 7,3 C 5,7 C 12,1 km/h (2 Bft)
29.02.2012 02:14 8,7 C 8,7 C 8,4 C 8,3 C 7,4 C 0,0 C 91 % 94 % 0 % 1021,6 hPa 0,0 l/m 9,2 km/h (2 Bft) N 0 0 min 0,0 UV-I 7,3 C 5,7 C 6,1 km/h (2 Bft)
29.02.2012 02:20 8,7 C 8,7 C 8,5 C 8,5 C 7,7 C 0,0 C 91 % 94 % 0 % 1020,9 hPa 0,0 l/m 8,2 km/h (2 Bft) W-NW 292 0 min 0,0 UV-I 7,3 C 6,3 C 5,6 km/h (1 Bft)
29.02.2012 02:25 8,6 C 8,7 C 8,4 C 8,3 C 7,7 C 0,0 C 91 % 94 % 0 % 1020,9 hPa 0,0 l/m 8,2 km/h (2 Bft) W-SW 247 0 min 0,0 UV-I 7,2 C 6,3 C 11,1 km/h (2 Bft)
29.02.2012 02:30 8,5 C 8,7 C 8,4 C 8,2 C 7,7 C 0,0 C 91 % 94 % 0 % 1020,9 hPa 0,0 l/m 7,7 km/h (2 Bft) W-SW 247 0 min 0,0 UV-I 7,1 C 6,4 C 11,3 km/h (2 Bft)
29.02.2012 02:35 8,7 C 8,7 C 8,5 C 8,5 C 7,6 C 0,0 C 91 % 93 % 0 % 1020,9 hPa 0,0 l/m 8,7 km/h (2 Bft) S 180 0 min 0,0 UV-I 7,3 C 6,0 C 9,2 km/h (2 Bft)
29.02.2012 02:40 8,7 C 8,7 C 8,4 C 8,4 C 7,3 C 0,0 C 91 % 93 % 0 % 1020,9 hPa 0,0 l/m 9,8 km/h (2 Bft) SW 225 0 min 0,0 UV-I 7,3 C 5,4 C 14,8 km/h (3 Bft)
29.02.2012 02:45 8,7 C 8,7 C 8,5 C 8,5 C 7,6 C 0,0 C 91 % 93 % 0 % 1020,9 hPa 0,0 l/m 9,3 km/h (2 Bft) SW 225 0 min 0,0 UV-I 7,3 C 5,9 C 13,2 km/h (3 Bft)
29.02.2012 02:50 8,7 C 8,9 C 8,5 C 8,3 C 7,6 C 0,0 C 91 % 93 % 0 % 1020,9 hPa 0,0 l/m 9,5 km/h (2 Bft) W-SW 247 0 min 0,0 UV-I 7,3 C 5,9 C 9,5 km/h (2 Bft)
29.02.2012 02:55 8,7 C 8,9 C 8,5 C 8,3 C 7,6 C 0,0 C 91 % 93 % 0 % 1020,9 hPa 0,0 l/m 10,1 km/h (2 Bft) W 270 0 min 0,0 UV-I 7,3 C 5,7 C 13,2 km/h (3 Bft)
29.02.2012 03:00 8,7 C 8,7 C 8,6 C 8,3 C 7,6 C 0,0 C 91 % 93 % 0 % 1020,9 hPa 0,0 l/m 10,1 km/h (2 Bft) W-SW 247 0 min 0,0 UV-I 7,3 C 5,7 C 19,6 km/h (3 Bft)
29.02.2012 03:10 8,8 C 8,9 C 8,6 C 8,6 C 7,8 C 0,0 C 90 % 93 % 0 % 1020,9 hPa 0,0 l/m 8,7 km/h (2 Bft) N 0 0 min 0,0 UV-I 7,3 C 6,3 C 17,7 km/h (3 Bft)
29.02.2012 03:20 8,9 C 8,9 C 8,7 C 8,5 C 7,8 C 0,0 C 90 % 93 % 0 % 1020,8 hPa 0,0 l/m 8,5 km/h (2 Bft) W-NW 292 0 min 0,0 UV-I 7,4 C 6,3 C 12,6 km/h (3 Bft)
29.02.2012 03:25 8,8 C 8,9 C 8,6 C 8,6 C 8,0 C 0,0 C 90 % 93 % 0 % 1020,8 hPa 0,0 l/m 8,5 km/h (2 Bft) SW 225 0 min 0,0 UV-I 7,3 C 6,5 C 14,0 km/h (3 Bft)
29.02.2012 03:30 8,9 C 8,9 C 8,7 C 8,7 C 7,8 C 0,0 C 90 % 93 % 0 % 1020,8 hPa 0,0 l/m 9,3 km/h (2 Bft) SW 225 0 min 0,0 UV-I 7,4 C 6,1 C 8,7 km/h (2 Bft)
29.02.2012 03:35 8,9 C 8,9 C 8,7 C 8,5 C 7,8 C 0,0 C 90 % 93 % 0 % 1021,6 hPa 0,0 l/m 9,8 km/h (2 Bft) W-SW 247 0 min 0,0 UV-I 7,4 C 6,0 C 10,1 km/h (2 Bft)
29.02.2012 03:40 9,1 C 8,9 C 8,7 C 8,8 C 7,9 C 0,0 C 90 % 92 % 0 % 1021,6 hPa 0,0 l/m 9,0 km/h (2 Bft) W-SW 247 0 min 0,0 UV-I 7,5 C 6,3 C 13,7 km/h (3 Bft)
29.02.2012 03:45 9,0 C 8,9 C 8,8 C 8,8 C 8,1 C 0,0 C 90 % 92 % 0 % 1021,6 hPa 0,0 l/m 8,5 km/h (2 Bft) W-SW 247 0 min 0,0 UV-I 7,4 C 6,7 C 8,2 km/h (2 Bft)
29.02.2012 03:50 9,1 C 8,9 C 8,8 C 8,9 C 8,2 C 0,0 C 90 % 92 % 0 % 1021,6 hPa 0,0 l/m 7,9 km/h (2 Bft) S-SW 202 0 min 0,0 UV-I 7,5 C 6,9 C 10,6 km/h (2 Bft)
29.02.2012 03:55 9,1 C 8,9 C 8,8 C 8,8 C 8,3 C 0,0 C 90 % 92 % 0 % 1021,3 hPa 0,0 l/m 7,2 km/h (2 Bft) W-SW 247 0 min 0,0 UV-I 7,5 C 7,2 C 11,9 km/h (2 Bft)
29.02.2012 04:00 9,0 C 8,9 C 8,8 C 8,9 C 8,2 C 0,0 C 90 % 92 % 0 % 1021,3 hPa 0,0 l/m 7,9 km/h (2 Bft) W-SW 247 0 min 0,0 UV-I 7,4 C 6,9 C 9,5 km/h (2 Bft)
29.02.2012 04:10 9,1 C 8,9 C 8,7 C 8,9 C 8,4 C 0,0 C 90 % 92 % 0 % 1021,3 hPa 0,0 l/m 6,6 km/h (2 Bft) N 0 0 min 0,0 UV-I 7,5 C 7,5 C 6,6 km/h (2 Bft)
29.02.2012 04:20 8,8 C 8,9 C 8,6 C 8,7 C 8,4 C 0,0 C 90 % 93 % 0 % 1021,6 hPa 0,0 l/m 5,8 km/h (2 Bft) W-SW 247 0 min 0,0 UV-I 7,3 C 7,7 C 7,7 km/h (2 Bft)
29.02.2012 04:25 8,8 C 8,9 C 8,7 C 8,6 C 8,1 C 0,0 C 90 % 93 % 0 % 1021,6 hPa 0,0 l/m 6,3 km/h (2 Bft) O-SO 112 0 min 0,0 UV-I 7,3 C 7,2 C 9,8 km/h (2 Bft)
29.02.2012 04:30 8,8 C 8,9 C 8,7 C 8,5 C 7,9 C 0,0 C 90 % 93 % 0 % 1021,6 hPa 0,0 l/m 7,1 km/h (2 Bft) W-SW 247 0 min 0,0 UV-I 7,3 C 6,8 C 11,1 km/h (2 Bft)
29.02.2012 04:35 8,8 C 8,9 C 8,7 C 8,5 C 7,8 C 0,0 C 90 % 93 % 0 % 1021,1 hPa 0,0 l/m 7,2 km/h (2 Bft) W-SW 247 0 min 0,0 UV-I 7,3 C 6,6 C 9,5 km/h (2 Bft)
29.02.2012 04:40 8,8 C 9,0 C 8,7 C 8,5 C 7,8 C 0,0 C 90 % 93 % 0 % 1021,1 hPa 0,0 l/m 7,4 km/h (2 Bft) W 270 0 min 0,0 UV-I 7,3 C 6,6 C 9,5 km/h (2 Bft)
29.02.2012 04:45 8,8 C 9,0 C 8,7 C 8,5 C 7,8 C 0,0 C 91 % 93 % 0 % 1021,1 hPa 0,0 l/m 7,2 km/h (2 Bft) W 270 0 min 0,0 UV-I 7,4 C 6,6 C 8,4 km/h (2 Bft)
29.02.2012 04:50 8,9 C 9,0 C 8,7 C 8,5 C 7,8 C 0,0 C 91 % 93 % 0 % 1021,1 hPa 0,0 l/m 7,2 km/h (2 Bft) W-SW 247 0 min 0,0 UV-I 7,5 C 6,6 C 6,8 km/h (2 Bft)
29.02.2012 04:55 8,9 C 9,0 C 8,5 C 8,6 C 7,7 C 0,0 C 91 % 93 % 0 % 1021,4 hPa 0,0 l/m 8,2 km/h (2 Bft) W-SW 247 0 min 0,0 UV-I 7,5 C 6,3 C 12,4 km/h (3 Bft)
29.02.2012 05:00 8,8 C 9,0 C 8,6 C 8,4 C 7,7 C 0,0 C 91 % 93 % 0 % 1021,4 hPa 0,0 l/m 8,0 km/h (2 Bft) SW 225 0 min 0,0 UV-I 7,4 C 6,3 C 9,8 km/h (2 Bft)
29.02.2012 05:15 8,7 C 9,0 C 8,5 C 8,4 C 7,8 C 0,0 C 91 % 93 % 0 % 1022,1 hPa 0,0 l/m 7,6 km/h (2 Bft) W-SW 247 0 min 0,0 UV-I 7,3 C 6,5 C 8,7 km/h (2 Bft)
29.02.2012 05:18 8,7 C 9,0 C 8,5 C 8,4 C 7,8 C 0,0 C 91 % 93 % 0 % 1022,1 hPa 0,0 l/m 7,6 km/h (2 Bft) W-SW 247 0 min 0,0 UV-I 7,3 C 6,5 C 8,7 km/h (2 Bft)
29.02.2012 05:20 8,7 C 9,0 C 8,5 C 8,5 C 7,7 C 0,0 C 91 % 93 % 0 % 1022,1 hPa 0,0 l/m 7,7 km/h (2 Bft) W-SW 247 0 min 0,0 UV-I 7,3 C 6,4 C 7,7 km/h (2 Bft)
29.02.2012 05:25 8,6 C 9,0 C 8,5 C 8,3 C 7,8 C 0,0 C 91 % 93 % 0 % 1022,1 hPa 0,0 l/m 7,4 km/h (2 Bft) W-SW 247 0 min 0,0 UV-I 7,2 C 6,6 C 8,4 km/h (2 Bft)
29.02.2012 05:30 8,7 C 9,0 C 8,5 C 8,4 C 7,8 C 0,0 C 91 % 93 % 0 % 1022,1 hPa 0,0 l/m 7,2 km/h (2 Bft) W-SW 247 0 min 0,0 UV-I 7,3 C 6,6 C 8,0 km/h (2 Bft)
29.02.2012 05:35 8,7 C 9,0 C 8,5 C 8,4 C 7,8 C 0,0 C 92 % 93 % 0 % 1021,4 hPa 0,0 l/m 7,2 km/h (2 Bft) W-SW 247 0 min 0,0 UV-I 7,5 C 6,6 C 10,9 km/h (2 Bft)
29.02.2012 05:40 8,7 C 9,0 C 8,4 C 8,5 C 7,7 C 0,0 C 92 % 94 % 0 % 1021,4 hPa 0,0 l/m 7,9 km/h (2 Bft) W-SW 247 0 min 0,0 UV-I 7,5 C 6,3 C 8,7 km/h (2 Bft)
29.02.2012 05:45 8,6 C 9,0 C 8,4 C 8,3 C 7,7 C 0,0 C 92 % 94 % 0 % 1021,4 hPa 0,0 l/m 8,2 km/h (2 Bft) W-SW 247 0 min 0,0 UV-I 7,4 C 6,3 C 14,3 km/h (3 Bft)
29.02.2012 05:50 8,6 C 9,0 C 8,5 C 8,3 C 7,7 C 0,0 C 92 % 94 % 0 % 1021,4 hPa 0,0 l/m 8,0 km/h (2 Bft) W-NW 292 0 min 0,0 UV-I 7,4 C 6,3 C 11,7 km/h (2 Bft)
29.02.2012 05:55 8,5 C 9,0 C 8,4 C 8,2 C 7,7 C 0,0 C 92 % 94 % 0 % 1021,4 hPa 0,0 l/m 7,7 km/h (2 Bft) SW 225 0 min 0,0 UV-I 7,3 C 6,4 C 9,7 km/h (2 Bft)
29.02.2012 06:00 8,5 C 9,0 C 8,4 C 8,3 C 7,8 C 0,0 C 92 % 94 % 0 % 1021,4 hPa 0,0 l/m 7,6 km/h (2 Bft) SW 225 0 min 0,0 UV-I 7,3 C 6,5 C 11,3 km/h (2 Bft)
29.02.2012 06:07 8,5 C 9,0 C 8,5 C 8,3 C 7,9 C 0,0 C 92 % 94 % 0 % 1021,4 hPa 0,0 l/m 7,1 km/h (2 Bft) N 0 0 min 0,0 UV-I 7,3 C 6,8 C 7,6 km/h (2 Bft)
29.02.2012 06:20 8,6 C 9,0 C 8,4 C 8,4 C 7,9 C 0,0 C 92 % 94 % 0 % 1021,4 hPa 0,0 l/m 6,8 km/h (2 Bft) W-SW 247 0 min 0,0 UV-I 7,4 C 6,8 C 9,5 km/h (2 Bft)
29.02.2012 06:25 8,5 C 9,0 C 8,5 C 8,3 C 7,9 C 0,0 C 92 % 94 % 0 % 1021,4 hPa 0,0 l/m 6,9 km/h (2 Bft) W 270 0 min 0,0 UV-I 7,3 C 6,8 C 10,8 km/h (2 Bft)
29.02.2012 06:30 8,5 C 9,0 C 8,5 C 8,3 C 7,9 C 0,0 C 92 % 94 % 0 % 1021,4 hPa 0,0 l/m 6,9 km/h (2 Bft) W-SW 247 0 min 0,0 UV-I 7,3 C 6,8 C 9,3 km/h (2 Bft)
29.02.2012 06:35 8,6 C 9,0 C 8,5 C 8,4 C 8,1 C 0,0 C 92 % 94 % 0 % 1021,7 hPa 0,0 l/m 6,3 km/h (2 Bft) SW 225 0 min 0,0 UV-I 7,4 C 7,2 C 6,1 km/h (2 Bft)
29.02.2012 06:40 8,5 C 9,0 C 8,4 C 8,4 C 8,2 C 0,0 C 92 % 94 % 0 % 1021,7 hPa 0,0 l/m 6,1 km/h (2 Bft) W-SW 247 0 min 0,0 UV-I 7,3 C 7,4 C 6,3 km/h (2 Bft)
29.02.2012 06:45 8,5 C 9,0 C 8,4 C 8,4 C 8,1 C 0,0 C 92 % 94 % 0 % 1021,7 hPa 0,0 l/m 6,0 km/h (2 Bft) SW 225 0 min 0,0 UV-I 7,3 C 7,3 C 7,4 km/h (2 Bft)
29.02.2012 06:50 8,5 C 9,0 C 8,5 C 8,3 C 7,9 C 0,0 C 92 % 94 % 0 % 1021,7 hPa 0,0 l/m 6,6 km/h (2 Bft) W-SW 247 0 min 0,0 UV-I 7,3 C 6,9 C 7,6 km/h (2 Bft)
29.02.2012 06:55 8,5 C 9,0 C 8,4 C 8,3 C 7,8 C 0,0 C 92 % 94 % 0 % 1021,7 hPa 0,0 l/m 6,8 km/h (2 Bft) W-SW 247 0 min 0,0 UV-I 7,3 C 6,7 C 5,8 km/h (2 Bft)
29.02.2012 07:00 8,4 C 9,0 C 8,5 C 8,2 C 7,9 C 0,0 C 92 % 94 % 0 % 1021,7 hPa 0,0 l/m 6,6 km/h (2 Bft) W-SW 247 0 min 0,0 UV-I 7,2 C 6,9 C 4,8 km/h (1 Bft)
29.02.2012 07:10 8,4 C 9,0 C 8,4 C 8,4 C 8,4 C 0,0 C 92 % 94 % 0 % 1021,7 hPa 0,0 l/m 4,7 km/h (1 Bft) N 0 0 min 0,0 UV-I 7,2 C 8,0 C 4,5 km/h (1 Bft)
29.02.2012 07:20 8,4 C 9,0 C 8,3 C 8,5 C 8,5 C 0,1 C 92 % 94 % 3 % 1022,0 hPa 0,0 l/m 4,5 km/h (1 Bft) SW 225 0 min 0,0 UV-I 7,2 C 8,5 C 4,8 km/h (1 Bft)
29.02.2012 07:25 8,5 C 9,0 C 8,3 C 8,6 C 8,6 C 0,1 C 92 % 94 % 3 % 1022,0 hPa 0,0 l/m 4,3 km/h (1 Bft) W-SW 247 0 min 0,0 UV-I 7,3 C 8,6 C 2,4 km/h (1 Bft)
29.02.2012 07:30 8,4 C 9,0 C 8,3 C 8,8 C 8,8 C 0,4 C 92 % 94 % 11 % 1022,0 hPa 0,0 l/m 3,9 km/h (1 Bft) SW 225 0 min 0,0 UV-I 7,2 C 8,8 C 4,0 km/h (1 Bft)
29.02.2012 07:35 8,5 C 9,0 C 8,4 C 8,8 C 8,8 C 0,3 C 92 % 94 % 8 % 1022,1 hPa 0,0 l/m 3,9 km/h (1 Bft) W-SW 247 0 min 0,0 UV-I 7,3 C 8,8 C 4,0 km/h (1 Bft)
29.02.2012 07:40 8,4 C 9,0 C 8,3 C 8,7 C 8,7 C 0,3 C 92 % 94 % 8 % 1022,1 hPa 0,0 l/m 4,0 km/h (1 Bft) W-SW 247 0 min 0,0 UV-I 7,2 C 8,7 C 6,4 km/h (2 Bft)
29.02.2012 07:45 8,4 C 9,0 C 8,3 C 8,8 C 8,8 C 0,4 C 92 % 94 % 11 % 1022,1 hPa 0,0 l/m 3,9 km/h (1 Bft) W-SW 247 0 min 0,0 UV-I 7,2 C 8,8 C 3,9 km/h (1 Bft)
29.02.2012 07:50 8,5 C 9,0 C 8,3 C 8,8 C 8,8 C 0,3 C 92 % 94 % 8 % 1022,1 hPa 0,0 l/m 3,2 km/h (1 Bft) O 90 0 min 0,0 UV-I 7,3 C 8,8 C 3,1 km/h (1 Bft)
29.02.2012 07:55 8,5 C 9,0 C 8,3 C 8,8 C 8,8 C 0,3 C 92 % 94 % 8 % 1022,1 hPa 0,0 l/m 3,2 km/h (1 Bft) SW 225 0 min 0,0 UV-I 7,3 C 8,8 C 8,4 km/h (2 Bft)
29.02.2012 08:00 8,4 C 9,0 C 8,4 C 8,7 C 8,7 C 0,3 C 92 % 94 % 8 % 1022,1 hPa 0,0 l/m 4,5 km/h (1 Bft) S 180 0 min 0,0 UV-I 7,2 C 8,7 C 7,9 km/h (2 Bft)
29.02.2012 08:10 8,4 C 9,0 C 8,5 C 8,6 C 8,6 C 0,2 C 93 % 94 % 5 % 1022,1 hPa 0,0 l/m 4,8 km/h (1 Bft) N 0 0 min 0,0 UV-I 7,3 C 8,2 C 4,7 km/h (1 Bft)
29.02.2012 08:19 8,4 C 9,0 C 8,5 C 8,7 C 8,7 C 0,3 C 93 % 94 % 8 % 1022,9 hPa 0,0 l/m 4,3 km/h (1 Bft) W-SW 247 0 min 0,0 UV-I 7,3 C 8,7 C 6,0 km/h (2 Bft)
29.02.2012 08:25 8,5 C 9,0 C 8,4 C 9,1 C 9,1 C 0,6 C 93 % 94 % 16 % 1022,9 hPa 0,0 l/m 3,5 km/h (1 Bft) SW 225 0 min 0,0 UV-I 7,4 C 9,1 C 4,8 km/h (1 Bft)
29.02.2012 08:30 8,5 C 9,0 C 8,5 C 9,1 C 9,1 C 0,6 C 93 % 94 % 16 % 1022,9 hPa 0,0 l/m 4,0 km/h (1 Bft) SW 225 0 min 0,0 UV-I 7,4 C 9,1 C 4,5 km/h (1 Bft)
29.02.2012 08:35 8,5 C 9,0 C 8,5 C 9,1 C 9,1 C 0,6 C 93 % 94 % 16 % 1022,9 hPa 0,0 l/m 3,7 km/h (1 Bft) W-SW 247 0 min 0,0 UV-I 7,4 C 9,1 C 3,2 km/h (1 Bft)
29.02.2012 08:40 8,6 C 9,0 C 8,5 C 9,1 C 9,1 C 0,5 C 93 % 94 % 13 % 1022,9 hPa 0,0 l/m 2,7 km/h (1 Bft) W-SW 247 0 min 0,0 UV-I 7,5 C 9,1 C 2,7 km/h (1 Bft)
29.02.2012 08:45 8,7 C 9,0 C 8,4 C 9,2 C 9,2 C 0,5 C 93 % 94 % 13 % 1022,9 hPa 0,0 l/m 1,6 km/h (1 Bft) W-SW 247 0 min 0,0 UV-I 7,6 C 9,2 C 2,3 km/h (1 Bft)
29.02.2012 08:50 8,7 C 9,0 C 8,5 C 9,2 C 9,2 C 0,5 C 92 % 94 % 13 % 1022,9 hPa 0,0 l/m 1,1 km/h (1 Bft) W-SW 247 0 min 0,0 UV-I 7,5 C 9,2 C 0,0 km/h (0 Bft)
29.02.2012 08:55 8,7 C 9,0 C 8,5 C 9,2 C 9,2 C 0,5 C 92 % 94 % 13 % 1023,6 hPa 0,0 l/m 1,4 km/h (1 Bft) SW 225 0 min 0,0 UV-I 7,5 C 9,2 C 3,9 km/h (1 Bft)
29.02.2012 09:00 8,7 C 9,0 C 8,4 C 9,3 C 9,3 C 0,6 C 92 % 94 % 16 % 1023,6 hPa 0,0 l/m 1,9 km/h (1 Bft) S 180 0 min 0,0 UV-I 7,5 C 9,3 C 1,9 km/h (1 Bft)
29.02.2012 09:05 8,7 C 9,0 C 8,4 C 9,3 C 9,3 C 0,6 C 92 % 94 % 16 % 1023,6 hPa 0,0 l/m 2,4 km/h (1 Bft) W-SW 247 0 min 0,0 UV-I 7,5 C 9,3 C 3,2 km/h (1 Bft)
29.02.2012 09:10 8,6 C 9,0 C 8,5 C 9,3 C 9,3 C 0,7 C 92 % 94 % 18 % 1023,6 hPa 0,0 l/m 2,6 km/h (1 Bft) SW 225 0 min 0,0 UV-I 7,4 C 9,3 C 5,6 km/h (1 Bft)
29.02.2012 09:15 8,7 C 9,0 C 8,6 C 9,3 C 9,3 C 0,6 C 92 % 94 % 16 % 1023,2 hPa 0,0 l/m 3,7 km/h (1 Bft) SW 225 0 min 0,0 UV-I 7,5 C 9,3 C 5,5 km/h (1 Bft)
29.02.2012 09:20 8,7 C 9,0 C 8,6 C 9,3 C 9,3 C 0,6 C 92 % 94 % 16 % 1023,2 hPa 0,0 l/m 3,9 km/h (1 Bft) S-SW 202 0 min 0,0 UV-I 7,5 C 9,3 C 3,5 km/h (1 Bft)
29.02.2012 09:25 8,8 C 9,0 C 8,7 C 9,3 C 9,3 C 0,5 C 92 % 94 % 13 % 1023,2 hPa 0,0 l/m 4,0 km/h (1 Bft) SW 225 0 min 0,0 UV-I 7,6 C 9,3 C 2,7 km/h (1 Bft)
29.02.2012 09:30 8,7 C 9,0 C 8,7 C 9,3 C 9,3 C 0,6 C 92 % 94 % 16 % 1023,2 hPa 0,0 l/m 3,5 km/h (1 Bft) W-SW 247 0 min 0,0 UV-I 7,5 C 9,3 C 6,9 km/h (2 Bft)
29.02.2012 09:35 8,8 C 9,0 C 8,6 C 9,3 C 9,3 C 0,5 C 92 % 94 % 13 % 1023,4 hPa 0,0 l/m 4,0 km/h (1 Bft) W-SW 247 0 min 0,0 UV-I 7,6 C 9,3 C 3,7 km/h (1 Bft)
29.02.2012 09:40 8,8 C 9,0 C 8,7 C 9,2 C 9,2 C 0,4 C 92 % 94 % 11 % 1023,4 hPa 0,0 l/m 4,3 km/h (1 Bft) W-SW 247 0 min 0,0 UV-I 7,6 C 9,2 C 4,7 km/h (1 Bft)
29.02.2012 09:45 8,8 C 9,0 C 8,7 C 9,3 C 9,3 C 0,5 C 92 % 94 % 13 % 1023,4 hPa 0,0 l/m 3,7 km/h (1 Bft) SW 225 0 min 0,0 UV-I 7,6 C 9,3 C 3,5 km/h (1 Bft)
29.02.2012 09:50 8,8 C 9,0 C 8,7 C 9,4 C 9,4 C 0,6 C 92 % 94 % 16 % 1023,4 hPa 0,0 l/m 3,5 km/h (1 Bft) NW 315 0 min 0,0 UV-I 7,6 C 9,4 C 4,0 km/h (1 Bft)
29.02.2012 09:55 8,9 C 9,0 C 8,7 C 9,4 C 9,4 C 0,5 C 92 % 94 % 13 % 1023,4 hPa 0,0 l/m 2,6 km/h (1 Bft) W-SW 247 0 min 0,0 UV-I 7,7 C 9,4 C 4,0 km/h (1 Bft)
29.02.2012 10:00 8,9 C 9,0 C 8,8 C 9,4 C 9,4 C 0,5 C 92 % 94 % 13 % 1023,4 hPa 0,0 l/m 2,4 km/h (1 Bft) W-SW 247 0 min 0,0 UV-I 7,7 C 9,4 C 2,7 km/h (1 Bft)
29.02.2012 10:10 8,8 C 9,0 C 8,7 C 9,5 C 9,5 C 0,7 C 92 % 94 % 18 % 1023,4 hPa 0,0 l/m 2,7 km/h (1 Bft) SW 225 0 min 0,0 UV-I 7,6 C 9,5 C 3,7 km/h (1 Bft)
29.02.2012 10:15 8,8 C 9,0 C 8,8 C 9,5 C 9,5 C 0,7 C 92 % 94 % 18 % 1023,4 hPa 0,0 l/m 3,9 km/h (1 Bft) W-SW 247 0 min 0,0 UV-I 7,6 C 9,5 C 4,7 km/h (1 Bft)
29.02.2012 10:20 8,8 C 9,0 C 8,9 C 9,5 C 9,5 C 0,7 C 93 % 94 % 18 % 1023,4 hPa 0,0 l/m 4,0 km/h (1 Bft) SW 225 0 min 0,0 UV-I 7,7 C 9,5 C 4,2 km/h (1 Bft)
29.02.2012 10:25 8,9 C 9,0 C 8,9 C 9,3 C 9,3 C 0,4 C 93 % 94 % 11 % 1023,4 hPa 0,0 l/m 4,8 km/h (1 Bft) W-SW 247 0 min 0,0 UV-I 7,8 C 9,0 C 10,8 km/h (2 Bft)
29.02.2012 10:30 8,9 C 9,0 C 8,9 C 9,2 C 9,2 C 0,3 C 93 % 94 % 8 % 1023,4 hPa 0,0 l/m 5,5 km/h (1 Bft) W 270 0 min 0,0 UV-I 7,8 C 8,7 C 4,2 km/h (1 Bft)
29.02.2012 10:35 8,9 C 9,0 C 8,9 C 9,4 C 9,4 C 0,5 C 93 % 94 % 13 % 1023,6 hPa 0,0 l/m 4,7 km/h (1 Bft) SW 225 0 min 0,0 UV-I 7,8 C 9,2 C 4,2 km/h (1 Bft)
29.02.2012 10:40 8,9 C 9,0 C 8,8 C 9,6 C 9,6 C 0,7 C 93 % 94 % 18 % 1023,6 hPa 0,0 l/m 2,4 km/h (1 Bft) W-SW 247 0 min 0,0 UV-I 7,8 C 9,6 C 3,5 km/h (1 Bft)
29.02.2012 10:45 8,9 C 9,1 C 8,8 C 9,6 C 9,6 C 0,7 C 93 % 94 % 18 % 1023,6 hPa 0,0 l/m 2,3 km/h (1 Bft) NW 315 0 min 0,0 UV-I 7,8 C 9,6 C 2,4 km/h (1 Bft)
29.02.2012 10:50 8,9 C 9,1 C 8,8 C 9,6 C 9,6 C 0,7 C 93 % 94 % 18 % 1023,6 hPa 0,0 l/m 2,4 km/h (1 Bft) W 270 0 min 0,0 UV-I 7,8 C 9,6 C 1,9 km/h (1 Bft)
29.02.2012 10:55 8,9 C 9,1 C 8,9 C 9,6 C 9,6 C 0,7 C 93 % 94 % 18 % 1024,8 hPa 0,0 l/m 2,4 km/h (1 Bft) W 270 0 min 0,0 UV-I 7,8 C 9,6 C 0,0 km/h (0 Bft)
29.02.2012 11:00 9,0 C 9,1 C 9,0 C 9,6 C 9,6 C 0,6 C 93 % 94 % 16 % 1024,8 hPa 0,0 l/m 2,7 km/h (1 Bft) W-SW 247 0 min 0,0 UV-I 7,9 C 9,6 C 3,7 km/h (1 Bft)
29.02.2012 11:05 9,1 C 9,1 C 8,9 C 9,7 C 9,7 C 0,6 C 93 % 94 % 16 % 1024,8 hPa 0,0 l/m 2,1 km/h (1 Bft) W-SW 247 0 min 0,0 UV-I 8,0 C 9,7 C 2,4 km/h (1 Bft)
29.02.2012 11:10 9,1 C 9,1 C 9,0 C 9,7 C 9,7 C 0,6 C 93 % 94 % 16 % 1024,8 hPa 0,0 l/m 1,6 km/h (1 Bft) S 180 0 min 0,0 UV-I 8,0 C 9,7 C 2,1 km/h (1 Bft)
29.02.2012 11:15 9,1 C 9,1 C 9,0 C 9,7 C 9,7 C 0,6 C 93 % 94 % 16 % 1024,6 hPa 0,0 l/m 2,1 km/h (1 Bft) W-SW 247 0 min 0,0 UV-I 8,0 C 9,7 C 4,3 km/h (1 Bft)
29.02.2012 11:20 9,0 C 9,1 C 9,1 C 9,8 C 9,8 C 0,8 C 93 % 94 % 21 % 1024,6 hPa 0,0 l/m 3,2 km/h (1 Bft) SW 225 0 min 0,0 UV-I 7,9 C 9,8 C 4,0 km/h (1 Bft)
29.02.2012 11:25 9,1 C 9,1 C 9,1 C 9,8 C 9,8 C 0,7 C 93 % 94 % 18 % 1024,6 hPa 0,0 l/m 3,5 km/h (1 Bft) S-SW 202 0 min 0,0 UV-I 8,0 C 9,8 C 4,8 km/h (1 Bft)
29.02.2012 11:30 9,0 C 9,1 C 9,0 C 9,8 C 9,8 C 0,8 C 93 % 94 % 21 % 1024,6 hPa 0,0 l/m 3,1 km/h (1 Bft) W-NW 292 0 min 0,0 UV-I 7,9 C 9,8 C 3,5 km/h (1 Bft)
29.02.2012 11:35 9,1 C 9,1 C 9,0 C 9,8 C 9,8 C 0,7 C 93 % 94 % 18 % 1024,6 hPa 0,0 l/m 3,2 km/h (1 Bft) W-SW 247 0 min 0,0 UV-I 8,0 C 9,8 C 3,4 km/h (1 Bft)
29.02.2012 11:40 9,1 C 9,1 C 9,1 C 9,9 C 9,9 C 0,8 C 93 % 94 % 21 % 1024,6 hPa 0,0 l/m 3,2 km/h (1 Bft) SW 225 0 min 0,0 UV-I 8,0 C 9,9 C 3,7 km/h (1 Bft)
29.02.2012 11:45 9,1 C 9,1 C 9,1 C 9,9 C 9,9 C 0,8 C 93 % 94 % 21 % 1024,6 hPa 0,0 l/m 4,0 km/h (1 Bft) SW 225 0 min 0,0 UV-I 8,0 C 9,9 C 6,0 km/h (2 Bft)
29.02.2012 11:50 9,1 C 9,1 C 9,1 C 9,7 C 9,7 C 0,6 C 93 % 94 % 16 % 1024,6 hPa 0,0 l/m 4,7 km/h (1 Bft) W-SW 247 0 min 0,0 UV-I 8,0 C 9,5 C 9,3 km/h (2 Bft)
29.02.2012 11:55 9,2 C 9,0 C 9,2 C 9,7 C 9,7 C 0,5 C 93 % 94 % 13 % 1024,0 hPa 0,0 l/m 5,0 km/h (1 Bft) S 180 0 min 0,0 UV-I 8,1 C 9,4 C 5,1 km/h (1 Bft)
29.02.2012 12:00 9,2 C 9,0 C 9,3 C 9,8 C 9,8 C 0,6 C 93 % 94 % 16 % 1024,0 hPa 0,0 l/m 5,3 km/h (1 Bft) W-SW 247 0 min 0,0 UV-I 8,1 C 9,4 C 7,2 km/h (2 Bft)
29.02.2012 12:05 9,2 C 9,0 C 9,2 C 9,8 C 9,8 C 0,6 C 93 % 94 % 16 % 1024,0 hPa 0,0 l/m 4,8 km/h (1 Bft) W-SW 247 0 min 0,0 UV-I 8,1 C 9,6 C 4,0 km/h (1 Bft)
29.02.2012 12:10 9,3 C 9,0 C 9,2 C 9,9 C 9,9 C 0,6 C 93 % 94 % 16 % 1024,0 hPa 0,0 l/m 4,5 km/h (1 Bft) W-SW 247 0 min 0,0 UV-I 8,2 C 9,9 C 6,4 km/h (2 Bft)
29.02.2012 12:15 9,3 C 9,0 C 9,3 C 9,6 C 9,6 C 0,3 C 93 % 94 % 8 % 1024,3 hPa 0,0 l/m 5,5 km/h (1 Bft) W-SW 247 0 min 0,0 UV-I 8,2 C 9,2 C 8,4 km/h (2 Bft)
29.02.2012 12:20 9,2 C 9,0 C 9,2 C 9,4 C 9,4 C 0,2 C 93 % 94 % 5 % 1024,3 hPa 0,0 l/m 6,0 km/h (2 Bft) W-SW 247 0 min 0,0 UV-I 8,1 C 8,8 C 6,3 km/h (2 Bft)
29.02.2012 12:25 9,2 C 9,0 C 9,3 C 9,4 C 9,4 C 0,2 C 93 % 94 % 5 % 1024,3 hPa 0,0 l/m 6,4 km/h (2 Bft) W 270 0 min 0,0 UV-I 8,1 C 8,7 C 11,9 km/h (2 Bft)
29.02.2012 12:30 9,2 C 9,0 C 9,3 C 9,6 C 9,6 C 0,4 C 93 % 94 % 11 % 1024,3 hPa 0,0 l/m 6,1 km/h (2 Bft) W-SW 247 0 min 0,0 UV-I 8,1 C 9,0 C 4,8 km/h (1 Bft)
29.02.2012 12:35 9,3 C 9,1 C 9,3 C 10,1 C 10,1 C 0,8 C 93 % 94 % 21 % 1024,4 hPa 0,0 l/m 4,8 km/h (1 Bft) W-SW 247 0 min 0,0 UV-I 8,2 C 10,1 C 4,0 km/h (1 Bft)
29.02.2012 12:40 9,3 C 9,1 C 9,3 C 10,1 C 10,1 C 0,8 C 93 % 94 % 21 % 1024,4 hPa 0,0 l/m 4,0 km/h (1 Bft) W-SW 247 0 min 0,0 UV-I 8,2 C 10,1 C 3,1 km/h (1 Bft)
29.02.2012 12:45 9,3 C 9,1 C 9,3 C 10,1 C 10,1 C 0,8 C 93 % 94 % 21 % 1024,4 hPa 0,0 l/m 2,9 km/h (1 Bft) W-SW 247 0 min 0,0 UV-I 8,2 C 10,1 C 3,5 km/h (1 Bft)
29.02.2012 12:50 9,3 C 9,1 C 9,3 C 10,1 C 10,1 C 0,8 C 93 % 94 % 21 % 1024,4 hPa 0,0 l/m 2,6 km/h (1 Bft) W-SW 247 0 min 0,0 UV-I 8,2 C 10,1 C 2,7 km/h (1 Bft)
29.02.2012 12:55 9,3 C 9,1 C 9,3 C 10,1 C 10,1 C 0,8 C 93 % 94 % 21 % 1024,4 hPa 0,0 l/m 2,7 km/h (1 Bft) W-SW 247 0 min 0,0 UV-I 8,2 C 10,1 C 2,9 km/h (1 Bft)
29.02.2012 13:00 9,3 C 9,1 C 9,3 C 10,1 C 10,1 C 0,8 C 93 % 94 % 21 % 1024,4 hPa 0,0 l/m 2,7 km/h (1 Bft) SW 225 0 min 0,0 UV-I 8,2 C 10,1 C 4,2 km/h (1 Bft)
29.02.2012 13:10 9,3 C 9,1 C 9,4 C 10,1 C 10,1 C 0,8 C 93 % 94 % 21 % 1024,4 hPa 0,0 l/m 2,7 km/h (1 Bft) SW 225 0 min 0,0 UV-I 8,2 C 10,1 C 3,5 km/h (1 Bft)
29.02.2012 13:15 9,3 C 9,1 C 9,4 C 10,1 C 10,1 C 0,8 C 93 % 94 % 21 % 1024,3 hPa 0,0 l/m 2,4 km/h (1 Bft) W-SW 247 0 min 0,0 UV-I 8,2 C 10,1 C 1,6 km/h (1 Bft)
29.02.2012 13:20 9,4 C 9,1 C 9,3 C 10,1 C 10,1 C 0,7 C 93 % 94 % 18 % 1024,3 hPa 0,0 l/m 2,4 km/h (1 Bft) W-SW 247 0 min 0,0 UV-I 8,3 C 10,1 C 3,1 km/h (1 Bft)
29.02.2012 13:25 9,4 C 9,1 C 9,3 C 10,1 C 10,1 C 0,7 C 93 % 94 % 18 % 1024,3 hPa 0,0 l/m 2,6 km/h (1 Bft) W-SW 247 0 min 0,0 UV-I 8,3 C 10,1 C 3,7 km/h (1 Bft)
29.02.2012 13:30 9,3 C 9,1 C 9,5 C 10,1 C 10,1 C 0,8 C 93 % 94 % 21 % 1024,3 hPa 0,0 l/m 3,2 km/h (1 Bft) W-SW 247 0 min 0,0 UV-I 8,2 C 10,1 C 4,3 km/h (1 Bft)
29.02.2012 13:35 9,4 C 9,1 C 9,5 C 10,1 C 10,1 C 0,7 C 93 % 94 % 18 % 1024,7 hPa 0,0 l/m 3,1 km/h (1 Bft) W-SW 247 0 min 0,0 UV-I 8,3 C 10,1 C 3,4 km/h (1 Bft)
29.02.2012 13:40 9,3 C 9,1 C 9,3 C 10,1 C 10,1 C 0,8 C 93 % 94 % 21 % 1024,7 hPa 0,0 l/m 3,1 km/h (1 Bft) W-SW 247 0 min 0,0 UV-I 8,2 C 10,1 C 2,1 km/h (1 Bft)
29.02.2012 13:45 9,4 C 9,1 C 9,5 C 10,1 C 10,1 C 0,7 C 93 % 95 % 18 % 1024,7 hPa 0,0 l/m 3,5 km/h (1 Bft) SW 225 0 min 0,0 UV-I 8,3 C 10,1 C 4,8 km/h (1 Bft)
29.02.2012 13:50 9,5 C 9,1 C 9,5 C 10,1 C 10,1 C 0,6 C 93 % 94 % 16 % 1024,7 hPa 0,0 l/m 3,7 km/h (1 Bft) SW 225 0 min 0,0 UV-I 8,4 C 10,1 C 4,2 km/h (1 Bft)
29.02.2012 13:55 9,5 C 9,1 C 9,5 C 10,3 C 10,3 C 0,8 C 93 % 94 % 21 % 1024,1 hPa 0,0 l/m 4,3 km/h (1 Bft) W-SW 247 0 min 0,0 UV-I 8,4 C 10,3 C 5,8 km/h (2 Bft)
29.02.2012 14:00 9,4 C 9,1 C 9,4 C 10,2 C 10,2 C 0,8 C 93 % 95 % 21 % 1024,1 hPa 0,0 l/m 4,7 km/h (1 Bft) S 180 0 min 0,0 UV-I 8,3 C 10,2 C 8,9 km/h (2 Bft)
29.02.2012 14:05 9,5 C 9,1 C 9,5 C 10,1 C 10,1 C 0,6 C 93 % 95 % 16 % 1024,1 hPa 0,0 l/m 5,0 km/h (1 Bft) W-SW 247 0 min 0,0 UV-I 8,4 C 10,1 C 4,3 km/h (1 Bft)
29.02.2012 14:10 9,5 C 9,3 C 9,5 C 10,2 C 10,2 C 0,7 C 93 % 95 % 18 % 1024,1 hPa 0,0 l/m 4,7 km/h (1 Bft) SW 225 0 min 0,0 UV-I 8,4 C 10,2 C 6,1 km/h (2 Bft)
29.02.2012 14:15 9,5 C 9,3 C 9,5 C 10,3 C 10,3 C 0,8 C 93 % 95 % 21 % 1024,4 hPa 0,0 l/m 3,9 km/h (1 Bft) SW 225 0 min 0,0 UV-I 8,4 C 10,3 C 6,3 km/h (2 Bft)
29.02.2012 14:20 9,5 C 9,3 C 9,5 C 10,3 C 10,3 C 0,8 C 93 % 95 % 21 % 1024,4 hPa 0,0 l/m 3,2 km/h (1 Bft) W 270 0 min 0,0 UV-I 8,4 C 10,3 C 4,5 km/h (1 Bft)
29.02.2012 14:25 9,5 C 9,3 C 9,5 C 10,3 C 10,3 C 0,8 C 93 % 95 % 21 % 1024,4 hPa 0,0 l/m 3,7 km/h (1 Bft) W-SW 247 0 min 0,0 UV-I 8,4 C 10,3 C 4,7 km/h (1 Bft)
29.02.2012 14:30 9,5 C 9,3 C 9,5 C 10,3 C 10,3 C 0,8 C 93 % 95 % 21 % 1024,4 hPa 0,0 l/m 4,0 km/h (1 Bft) W 270 0 min 0,0 UV-I 8,4 C 10,3 C 5,0 km/h (1 Bft)
29.02.2012 14:35 9,5 C 9,3 C 9,5 C 10,3 C 10,3 C 0,8 C 93 % 95 % 21 % 1024,4 hPa 0,0 l/m 3,7 km/h (1 Bft) SW 225 0 min 0,0 UV-I 8,4 C 10,3 C 4,3 km/h (1 Bft)
29.02.2012 14:40 9,5 C 9,3 C 9,5 C 10,3 C 10,3 C 0,8 C 93 % 95 % 21 % 1024,4 hPa 0,0 l/m 3,5 km/h (1 Bft) SW 225 0 min 0,0 UV-I 8,4 C 10,3 C 4,3 km/h (1 Bft)
29.02.2012 14:45 9,6 C 9,3 C 9,5 C 10,3 C 10,3 C 0,7 C 93 % 95 % 18 % 1024,4 hPa 0,0 l/m 3,9 km/h (1 Bft) W-SW 247 0 min 0,0 UV-I 8,5 C 10,3 C 4,2 km/h (1 Bft)
29.02.2012 14:50 9,6 C 9,3 C 9,6 C 10,3 C 10,3 C 0,7 C 93 % 95 % 18 % 1024,4 hPa 0,0 l/m 3,9 km/h (1 Bft) SW 225 0 min 0,0 UV-I 8,5 C 10,3 C 5,3 km/h (1 Bft)
29.02.2012 14:55 9,6 C 9,3 C 9,6 C 10,3 C 10,3 C 0,7 C 93 % 95 % 18 % 1024,2 hPa 0,0 l/m 3,9 km/h (1 Bft) W-SW 247 0 min 0,0 UV-I 8,5 C 10,3 C 4,3 km/h (1 Bft)
29.02.2012 15:00 9,5 C 9,3 C 9,5 C 10,3 C 10,3 C 0,8 C 93 % 95 % 21 % 1024,2 hPa 0,0 l/m 3,5 km/h (1 Bft) SW 225 0 min 0,0 UV-I 8,4 C 10,3 C 3,7 km/h (1 Bft)
29.02.2012 15:05 9,6 C 9,3 C 9,5 C 10,3 C 10,3 C 0,7 C 93 % 95 % 18 % 1024,2 hPa 0,0 l/m 3,7 km/h (1 Bft) SW 225 0 min 0,0 UV-I 8,5 C 10,3 C 5,8 km/h (2 Bft)
29.02.2012 15:10 9,6 C 9,3 C 9,5 C 10,3 C 10,3 C 0,7 C 93 % 95 % 18 % 1024,2 hPa 0,0 l/m 3,7 km/h (1 Bft) W-SW 247 0 min 0,0 UV-I 8,5 C 10,3 C 2,9 km/h (1 Bft)
29.02.2012 15:15 9,6 C 9,3 C 9,6 C 10,4 C 10,4 C 0,8 C 93 % 95 % 21 % 1024,2 hPa 0,0 l/m 2,9 km/h (1 Bft) W 270 0 min 0,0 UV-I 8,5 C 10,4 C 2,3 km/h (1 Bft)
29.02.2012 15:20 9,6 C 9,3 C 9,5 C 10,4 C 10,4 C 0,8 C 93 % 95 % 21 % 1024,2 hPa 0,0 l/m 2,7 km/h (1 Bft) W-SW 247 0 min 0,0 UV-I 8,5 C 10,4 C 4,3 km/h (1 Bft)
29.02.2012 15:25 9,6 C 9,3 C 9,5 C 10,4 C 10,4 C 0,8 C 93 % 95 % 21 % 1024,2 hPa 0,0 l/m 3,4 km/h (1 Bft) O-SO 112 0 min 0,0 UV-I 8,5 C 10,4 C 5,3 km/h (1 Bft)
29.02.2012 15:30 9,6 C 9,3 C 9,5 C 10,3 C 10,3 C 0,7 C 93 % 95 % 18 % 1024,2 hPa 0,0 l/m 3,4 km/h (1 Bft) SW 225 0 min 0,0 UV-I 8,5 C 10,3 C 2,9 km/h (1 Bft)
29.02.2012 15:35 9,6 C 9,3 C 9,5 C 10,3 C 10,3 C 0,7 C 93 % 95 % 18 % 1024,6 hPa 0,0 l/m 3,9 km/h (1 Bft) SW 225 0 min 0,0 UV-I 8,5 C 10,3 C 4,7 km/h (1 Bft)
29.02.2012 15:40 9,6 C 9,4 C 9,5 C 10,3 C 10,3 C 0,7 C 93 % 95 % 18 % 1024,6 hPa 0,0 l/m 4,0 km/h (1 Bft) W-SW 247 0 min 0,0 UV-I 8,5 C 10,3 C 3,4 km/h (1 Bft)
29.02.2012 15:45 9,6 C 9,4 C 9,5 C 10,3 C 10,3 C 0,7 C 93 % 95 % 18 % 1024,6 hPa 0,0 l/m 4,0 km/h (1 Bft) SW 225 0 min 0,0 UV-I 8,5 C 10,3 C 2,7 km/h (1 Bft)
29.02.2012 15:50 9,6 C 9,4 C 9,4 C 10,2 C 10,2 C 0,6 C 93 % 95 % 16 % 1024,6 hPa 0,0 l/m 3,9 km/h (1 Bft) W-SW 247 0 min 0,0 UV-I 8,5 C 10,2 C 3,5 km/h (1 Bft)
29.02.2012 15:55 9,5 C 9,4 C 9,5 C 10,2 C 10,2 C 0,7 C 93 % 95 % 18 % 1024,6 hPa 0,0 l/m 3,5 km/h (1 Bft) W-SW 247 0 min 0,0 UV-I 8,4 C 10,2 C 5,1 km/h (1 Bft)
29.02.2012 16:00 9,5 C 9,4 C 9,4 C 10,1 C 10,1 C 0,6 C 93 % 95 % 16 % 1024,6 hPa 0,0 l/m 3,2 km/h (1 Bft) W-SW 247 0 min 0,0 UV-I 8,4 C 10,1 C 4,2 km/h (1 Bft)
29.02.2012 16:05 9,5 C 9,4 C 9,3 C 10,1 C 10,1 C 0,6 C 93 % 95 % 16 % 1024,6 hPa 0,0 l/m 2,3 km/h (1 Bft) W-SW 247 0 min 0,0 UV-I 8,4 C 10,1 C 2,4 km/h (1 Bft)
29.02.2012 16:10 9,5 C 9,4 C 9,3 C 10,1 C 10,1 C 0,6 C 92 % 95 % 16 % 1024,6 hPa 0,0 l/m 1,8 km/h (1 Bft) SO 135 0 min 0,0 UV-I 8,3 C 10,1 C 3,4 km/h (1 Bft)
29.02.2012 16:15 9,5 C 9,4 C 9,3 C 10,0 C 10,0 C 0,5 C 93 % 95 % 13 % 1024,6 hPa 0,0 l/m 1,3 km/h (1 Bft) W-SW 247 0 min 0,0 UV-I 8,4 C 10,0 C 2,4 km/h (1 Bft)
29.02.2012 16:20 9,4 C 9,4 C 9,3 C 10,0 C 10,0 C 0,6 C 93 % 95 % 16 % 1024,6 hPa 0,0 l/m 1,1 km/h (1 Bft) W-SW 247 0 min 0,0 UV-I 8,3 C 10,0 C 2,3 km/h (1 Bft)
29.02.2012 16:25 9,5 C 9,4 C 9,3 C 10,0 C 10,0 C 0,5 C 92 % 95 % 13 % 1024,6 hPa 0,0 l/m 1,8 km/h (1 Bft) W-SW 247 0 min 0,0 UV-I 8,3 C 10,0 C 2,4 km/h (1 Bft)
29.02.2012 16:30 9,5 C 9,4 C 9,3 C 10,0 C 10,0 C 0,5 C 92 % 95 % 13 % 1024,6 hPa 0,0 l/m 1,9 km/h (1 Bft) S-SW 202 0 min 0,0 UV-I 8,3 C 10,0 C 3,1 km/h (1 Bft)
29.02.2012 16:35 9,5 C 9,4 C 9,2 C 10,0 C 10,0 C 0,5 C 92 % 95 % 13 % 1024,4 hPa 0,0 l/m 2,1 km/h (1 Bft) W-SW 247 0 min 0,0 UV-I 8,3 C 10,0 C 4,8 km/h (1 Bft)
29.02.2012 16:40 9,5 C 9,4 C 9,2 C 10,0 C 10,0 C 0,5 C 92 % 95 % 13 % 1024,4 hPa 0,0 l/m 2,4 km/h (1 Bft) W-SW 247 0 min 0,0 UV-I 8,3 C 10,0 C 3,4 km/h (1 Bft)
29.02.2012 16:45 9,5 C 9,4 C 9,2 C 10,0 C 10,0 C 0,5 C 92 % 95 % 13 % 1024,4 hPa 0,0 l/m 2,6 km/h (1 Bft) SW 225 0 min 0,0 UV-I 8,3 C 10,0 C 3,2 km/h (1 Bft)
29.02.2012 16:50 9,5 C 9,4 C 9,2 C 10,1 C 10,1 C 0,6 C 93 % 95 % 16 % 1024,4 hPa 0,0 l/m 2,6 km/h (1 Bft) W-SW 247 0 min 0,0 UV-I 8,4 C 10,1 C 3,1 km/h (1 Bft)
29.02.2012 16:55 9,5 C 9,4 C 9,3 C 10,1 C 10,1 C 0,6 C 92 % 95 % 16 % 1024,4 hPa 0,0 l/m 2,6 km/h (1 Bft) W-SW 247 0 min 0,0 UV-I 8,3 C 10,1 C 3,2 km/h (1 Bft)
29.02.2012 17:00 9,5 C 9,4 C 9,2 C 10,1 C 10,1 C 0,6 C 93 % 95 % 16 % 1024,4 hPa 0,0 l/m 2,4 km/h (1 Bft) SW 225 0 min 0,0 UV-I 8,4 C 10,1 C 2,6 km/h (1 Bft)
29.02.2012 17:10 9,5 C 9,4 C 9,2 C 10,1 C 10,1 C 0,6 C 92 % 95 % 16 % 1024,4 hPa 0,0 l/m 2,4 km/h (1 Bft) W-SW 247 0 min 0,0 UV-I 8,3 C 10,1 C 3,7 km/h (1 Bft)
29.02.2012 17:15 9,5 C 9,4 C 9,3 C 10,1 C 10,1 C 0,6 C 92 % 95 % 16 % 1024,1 hPa 0,0 l/m 2,6 km/h (1 Bft) W-SW 247 0 min 0,0 UV-I 8,3 C 10,1 C 3,4 km/h (1 Bft)
29.02.2012 17:20 9,5 C 9,4 C 9,3 C 10,1 C 10,1 C 0,6 C 93 % 95 % 16 % 1024,1 hPa 0,0 l/m 2,6 km/h (1 Bft) SW 225 0 min 0,0 UV-I 8,4 C 10,1 C 2,7 km/h (1 Bft)
29.02.2012 17:25 9,5 C 9,4 C 9,2 C 10,1 C 10,1 C 0,6 C 93 % 95 % 16 % 1024,1 hPa 0,0 l/m 1,4 km/h (1 Bft) S-SW 202 5 min 0,0 UV-I 8,4 C 10,1 C 1,6 km/h (1 Bft)
29.02.2012 17:30 9,4 C 9,4 C 9,2 C 10,1 C 10,1 C 0,7 C 92 % 95 % 18 % 1024,1 hPa 0,0 l/m 1,0 km/h (0 Bft) SO 135 5 min 0,0 UV-I 8,2 C 10,1 C 0,0 km/h (0 Bft)
29.02.2012 17:35 9,4 C 9,4 C 9,1 C 10,0 C 10,0 C 0,6 C 93 % 95 % 16 % 1024,9 hPa 0,0 l/m 0,0 km/h (0 Bft) S 180 5 min 0,0 UV-I 8,3 C 10,0 C 0,0 km/h (0 Bft)
29.02.2012 17:40 9,3 C 9,4 C 9,1 C 10,0 C 10,0 C 0,7 C 92 % 95 % 0 % 1024,9 hPa 0,0 l/m 0,0 km/h (0 Bft) S-SO 157 0 min 0,0 UV-I 8,1 C 10,0 C 0,0 km/h (0 Bft)
29.02.2012 17:45 9,3 C 9,4 C 9,1 C 9,9 C 9,9 C 0,6 C 92 % 95 % 0 % 1024,9 hPa 0,0 l/m 0,0 km/h (0 Bft) SO 135 0 min 0,0 UV-I 8,1 C 9,9 C 0,0 km/h (0 Bft)
29.02.2012 17:50 9,2 C 9,4 C 9,1 C 9,9 C 9,9 C 0,7 C 92 % 95 % 0 % 1024,9 hPa 0,0 l/m 0,0 km/h (0 Bft) O 90 0 min 0,0 UV-I 8,0 C 9,9 C 0,0 km/h (0 Bft)
29.02.2012 17:55 9,2 C 9,4 C 8,9 C 9,9 C 9,9 C 0,7 C 92 % 95 % 0 % 1024,8 hPa 0,0 l/m 0,0 km/h (0 Bft) O-NO 67 0 min 0,0 UV-I 8,0 C 9,9 C 0,0 km/h (0 Bft)
29.02.2012 18:00 9,2 C 9,4 C 8,9 C 9,8 C 9,8 C 0,6 C 92 % 95 % 0 % 1024,8 hPa 0,0 l/m 0,0 km/h (0 Bft) O-NO 67 0 min 0,0 UV-I 8,0 C 9,8 C 0,0 km/h (0 Bft)
29.02.2012 18:10 9,1 C 9,4 C 8,7 C 9,6 C 9,6 C 0,5 C 92 % 95 % 0 % 1024,8 hPa 0,0 l/m 0,0 km/h (0 Bft) NO 45 0 min 0,0 UV-I 7,9 C 9,6 C 0,0 km/h (0 Bft)
29.02.2012 18:15 9,1 C 9,4 C 8,7 C 9,6 C 9,6 C 0,5 C 92 % 95 % 0 % 1024,6 hPa 0,0 l/m 0,0 km/h (0 Bft) O-NO 67 0 min 0,0 UV-I 7,9 C 9,6 C 0,0 km/h (0 Bft)
29.02.2012 18:20 9,0 C 9,4 C 8,5 C 9,6 C 9,6 C 0,6 C 92 % 95 % 0 % 1024,6 hPa 0,0 l/m 0,0 km/h (0 Bft) O-NO 67 0 min 0,0 UV-I 7,8 C 9,6 C 0,0 km/h (0 Bft)
29.02.2012 18:25 9,1 C 9,4 C 8,5 C 9,6 C 9,6 C 0,5 C 92 % 95 % 0 % 1024,6 hPa 0,0 l/m 0,0 km/h (0 Bft) O-NO 67 0 min 0,0 UV-I 7,9 C 9,6 C 0,0 km/h (0 Bft)
29.02.2012 18:30 9,1 C 9,3 C 8,4 C 9,6 C 9,6 C 0,5 C 92 % 95 % 0 % 1024,6 hPa 0,0 l/m 0,0 km/h (0 Bft) W 270 0 min 0,0 UV-I 7,9 C 9,6 C 0,0 km/h (0 Bft)
29.02.2012 18:35 8,9 C 9,3 C 8,5 C 9,5 C 9,5 C 0,6 C 92 % 95 % 0 % 1024,6 hPa 0,0 l/m 0,0 km/h (0 Bft) W-SW 247 0 min 0,0 UV-I 7,7 C 9,5 C 0,0 km/h (0 Bft)
29.02.2012 18:40 8,9 C 9,3 C 8,5 C 9,5 C 9,5 C 0,6 C 92 % 95 % 0 % 1024,6 hPa 0,0 l/m 0,2 km/h (0 Bft) W-SW 247 0 min 0,0 UV-I 7,7 C 9,5 C 1,9 km/h (1 Bft)
29.02.2012 18:45 9,1 C 9,3 C 8,7 C 9,6 C 9,6 C 0,5 C 92 % 95 % 0 % 1024,6 hPa 0,0 l/m 0,8 km/h (0 Bft) SW 225 0 min 0,0 UV-I 7,9 C 9,6 C 1,8 km/h (1 Bft)
29.02.2012 18:50 9,1 C 9,4 C 8,7 C 9,6 C 9,6 C 0,5 C 92 % 95 % 0 % 1024,6 hPa 0,0 l/m 1,0 km/h (0 Bft) SO 135 0 min 0,0 UV-I 7,9 C 9,6 C 0,0 km/h (0 Bft)
29.02.2012 18:55 9,1 C 9,3 C 8,7 C 9,6 C 9,6 C 0,5 C 93 % 95 % 0 % 1024,6 hPa 0,0 l/m 0,5 km/h (0 Bft) N-NO 22 0 min 0,0 UV-I 8,0 C 9,6 C 0,0 km/h (0 Bft)
29.02.2012 19:00 9,1 C 9,3 C 8,7 C 9,6 C 9,6 C 0,5 C 93 % 95 % 0 % 1024,6 hPa 0,0 l/m 0,2 km/h (0 Bft) W 270 0 min 0,0 UV-I 8,0 C 9,6 C 0,0 km/h (0 Bft)
29.02.2012 19:05 9,1 C 9,3 C 8,7 C 9,6 C 9,6 C 0,5 C 93 % 95 % 0 % 1024,6 hPa 0,0 l/m 0,0 km/h (0 Bft) N-NO 22 0 min 0,0 UV-I 8,0 C 9,6 C 0,0 km/h (0 Bft)
29.02.2012 19:10 9,1 C 9,3 C 8,6 C 9,6 C 9,6 C 0,5 C 93 % 95 % 0 % 1024,6 hPa 0,0 l/m 0,3 km/h (0 Bft) W 270 0 min 0,0 UV-I 8,0 C 9,6 C 1,6 km/h (1 Bft)
29.02.2012 19:15 9,1 C 9,3 C 8,7 C 9,7 C 9,7 C 0,6 C 93 % 95 % 0 % 1025,1 hPa 0,0 l/m 1,1 km/h (1 Bft) SW 225 0 min 0,0 UV-I 8,0 C 9,7 C 2,9 km/h (1 Bft)
29.02.2012 19:20 9,1 C 9,3 C 8,8 C 9,7 C 9,7 C 0,6 C 93 % 95 % 0 % 1025,1 hPa 0,0 l/m 1,3 km/h (1 Bft) W-SW 247 0 min 0,0 UV-I 8,0 C 9,7 C 2,4 km/h (1 Bft)
29.02.2012 19:25 9,1 C 9,3 C 8,8 C 9,7 C 9,7 C 0,6 C 93 % 95 % 0 % 1025,1 hPa 0,0 l/m 1,9 km/h (1 Bft) S 180 0 min 0,0 UV-I 8,0 C 9,7 C 3,5 km/h (1 Bft)
29.02.2012 19:30 9,2 C 9,3 C 8,8 C 9,7 C 9,7 C 0,5 C 93 % 95 % 0 % 1025,1 hPa 0,0 l/m 2,4 km/h (1 Bft) W-NW 292 0 min 0,0 UV-I 8,1 C 9,7 C 2,7 km/h (1 Bft)
29.02.2012 19:35 9,1 C 9,3 C 8,9 C 9,7 C 9,7 C 0,6 C 93 % 95 % 0 % 1024,6 hPa 0,0 l/m 1,8 km/h (1 Bft) W-SW 247 0 min 0,0 UV-I 8,0 C 9,7 C 4,2 km/h (1 Bft)
29.02.2012 19:40 9,2 C 9,4 C 8,9 C 9,8 C 9,8 C 0,6 C 93 % 95 % 0 % 1024,6 hPa 0,0 l/m 1,0 km/h (0 Bft) SW 225 0 min 0,0 UV-I 8,1 C 9,8 C 2,4 km/h (1 Bft)
29.02.2012 19:45 9,2 C 9,3 C 8,8 C 9,8 C 9,8 C 0,6 C 93 % 95 % 0 % 1024,6 hPa 0,0 l/m 0,8 km/h (0 Bft) O-NO 67 0 min 0,0 UV-I 8,1 C 9,8 C 0,0 km/h (0 Bft)
29.02.2012 19:50 9,1 C 9,3 C 8,8 C 9,7 C 9,7 C 0,6 C 93 % 95 % 0 % 1024,6 hPa 0,0 l/m 0,2 km/h (0 Bft) O-SO 112 0 min 0,0 UV-I 8,0 C 9,7 C 0,0 km/h (0 Bft)
29.02.2012 19:55 9,0 C 9,3 C 8,7 C 9,6 C 9,6 C 0,6 C 93 % 95 % 0 % 1024,6 hPa 0,0 l/m 0,0 km/h (0 Bft) O 90 0 min 0,0 UV-I 7,9 C 9,6 C 0,0 km/h (0 Bft)
29.02.2012 20:00 9,0 C 9,3 C 8,6 C 9,6 C 9,6 C 0,6 C 93 % 95 % 0 % 1024,6 hPa 0,0 l/m 0,0 km/h (0 Bft) O-SO 112 0 min 0,0 UV-I 7,9 C 9,6 C 0,0 km/h (0 Bft)
29.02.2012 20:05 9,0 C 9,3 C 8,7 C 9,6 C 9,6 C 0,6 C 93 % 95 % 0 % 1024,6 hPa 0,0 l/m 0,2 km/h (0 Bft) O-NO 67 0 min 0,0 UV-I 7,9 C 9,6 C 2,1 km/h (1 Bft)
29.02.2012 20:10 8,9 C 9,3 C 8,6 C 9,6 C 9,6 C 0,7 C 92 % 95 % 0 % 1024,6 hPa 0,0 l/m 0,2 km/h (0 Bft) O-NO 67 0 min 0,0 UV-I 7,7 C 9,6 C 0,0 km/h (0 Bft)
29.02.2012 20:15 8,9 C 9,3 C 8,7 C 9,5 C 9,5 C 0,6 C 93 % 95 % 0 % 1025,0 hPa 0,0 l/m 0,2 km/h (0 Bft) O 90 0 min 0,0 UV-I 7,8 C 9,5 C 0,0 km/h (0 Bft)
29.02.2012 20:20 8,9 C 9,3 C 8,7 C 9,5 C 9,5 C 0,6 C 93 % 95 % 0 % 1025,0 hPa 0,0 l/m 0,3 km/h (0 Bft) W-NW 292 0 min 0,0 UV-I 7,8 C 9,5 C 0,0 km/h (0 Bft)
29.02.2012 20:25 8,9 C 9,3 C 8,6 C 9,6 C 9,6 C 0,7 C 93 % 95 % 0 % 1025,0 hPa 0,0 l/m 0,3 km/h (0 Bft) SO 135 0 min 0,0 UV-I 7,8 C 9,6 C 1,6 km/h (1 Bft)
29.02.2012 20:30 9,0 C 9,3 C 8,7 C 9,6 C 9,6 C 0,6 C 93 % 95 % 0 % 1025,0 hPa 0,0 l/m 0,6 km/h (0 Bft) W 270 0 min 0,0 UV-I 7,9 C 9,6 C 2,4 km/h (1 Bft)
29.02.2012 20:35 9,1 C 9,3 C 8,8 C 9,6 C 9,6 C 0,5 C 93 % 95 % 0 % 1024,6 hPa 0,0 l/m 1,0 km/h (0 Bft) S 180 0 min 0,0 UV-I 8,0 C 9,6 C 0,0 km/h (0 Bft)
29.02.2012 20:40 9,1 C 9,3 C 8,8 C 9,6 C 9,6 C 0,5 C 93 % 95 % 0 % 1024,6 hPa 0,0 l/m 1,0 km/h (0 Bft) W-SW 247 0 min 0,0 UV-I 8,0 C 9,6 C 2,1 km/h (1 Bft)
29.02.2012 20:45 9,0 C 9,3 C 8,7 C 9,6 C 9,6 C 0,6 C 93 % 95 % 0 % 1024,6 hPa 0,0 l/m 0,8 km/h (0 Bft) SW 225 0 min 0,0 UV-I 7,9 C 9,6 C 1,8 km/h (1 Bft)
29.02.2012 20:50 9,0 C 9,3 C 8,7 C 9,6 C 9,6 C 0,6 C 93 % 95 % 0 % 1024,6 hPa 0,0 l/m 0,3 km/h (0 Bft) W-SW 247 0 min 0,0 UV-I 7,9 C 9,6 C 0,0 km/h (0 Bft)
29.02.2012 20:55 9,0 C 9,3 C 8,7 C 9,6 C 9,6 C 0,6 C 93 % 95 % 0 % 1024,6 hPa 0,0 l/m 0,2 km/h (0 Bft) O-SO 112 0 min 0,0 UV-I 7,9 C 9,6 C 0,0 km/h (0 Bft)
29.02.2012 21:00 8,9 C 9,3 C 8,6 C 9,5 C 9,5 C 0,6 C 93 % 95 % 0 % 1024,6 hPa 0,0 l/m 0,2 km/h (0 Bft) O-NO 67 0 min 0,0 UV-I 7,8 C 9,5 C 0,0 km/h (0 Bft)
29.02.2012 21:10 8,8 C 9,3 C 8,5 C 9,4 C 9,4 C 0,6 C 93 % 95 % 0 % 1024,6 hPa 0,0 l/m 0,0 km/h (0 Bft) O-SO 112 0 min 0,0 UV-I 7,7 C 9,4 C 0,0 km/h (0 Bft)
29.02.2012 21:15 8,8 C 9,3 C 8,5 C 9,4 C 9,4 C 0,6 C 93 % 95 % 0 % 1025,2 hPa 0,0 l/m 0,0 km/h (0 Bft) O-SO 112 0 min 0,0 UV-I 7,7 C 9,4 C 0,0 km/h (0 Bft)
29.02.2012 21:20 8,8 C 9,3 C 8,4 C 9,4 C 9,4 C 0,6 C 93 % 95 % 0 % 1025,2 hPa 0,0 l/m 0,0 km/h (0 Bft) O-SO 112 0 min 0,0 UV-I 7,7 C 9,4 C 0,0 km/h (0 Bft)
29.02.2012 21:25 8,8 C 9,3 C 8,4 C 9,4 C 9,4 C 0,6 C 93 % 95 % 0 % 1025,2 hPa 0,0 l/m 0,0 km/h (0 Bft) O-NO 67 0 min 0,0 UV-I 7,7 C 9,4 C 0,0 km/h (0 Bft)
29.02.2012 21:30 8,8 C 9,3 C 8,4 C 9,4 C 9,4 C 0,6 C 93 % 95 % 0 % 1025,2 hPa 0,0 l/m 0,0 km/h (0 Bft) O 90 0 min 0,0 UV-I 7,7 C 9,4 C 0,0 km/h (0 Bft)
29.02.2012 21:35 8,8 C 9,3 C 8,5 C 9,4 C 9,4 C 0,6 C 93 % 95 % 0 % 1025,5 hPa 0,0 l/m 0,0 km/h (0 Bft) O-NO 67 0 min 0,0 UV-I 7,7 C 9,4 C 0,0 km/h (0 Bft)
29.02.2012 21:40 8,8 C 9,3 C 8,4 C 9,4 C 9,4 C 0,6 C 93 % 95 % 0 % 1025,5 hPa 0,0 l/m 0,0 km/h (0 Bft) O-SO 112 0 min 0,0 UV-I 7,7 C 9,4 C 0,0 km/h (0 Bft)
29.02.2012 21:45 8,8 C 9,3 C 8,5 C 9,3 C 9,3 C 0,5 C 93 % 95 % 0 % 1025,5 hPa 0,0 l/m 0,2 km/h (0 Bft) SW 225 0 min 0,0 UV-I 7,7 C 9,3 C 0,0 km/h (0 Bft)
29.02.2012 21:50 8,7 C 9,3 C 8,4 C 9,3 C 9,3 C 0,6 C 93 % 95 % 0 % 1025,5 hPa 0,0 l/m 0,2 km/h (0 Bft) NW 315 0 min 0,0 UV-I 7,6 C 9,3 C 0,0 km/h (0 Bft)
29.02.2012 21:55 8,7 C 9,3 C 8,4 C 9,3 C 9,3 C 0,6 C 93 % 95 % 0 % 1025,1 hPa 0,0 l/m 0,0 km/h (0 Bft) O-NO 67 0 min 0,0 UV-I 7,6 C 9,3 C 0,0 km/h (0 Bft)
29.02.2012 22:00 8,7 C 9,3 C 8,4 C 9,2 C 9,2 C 0,5 C 93 % 95 % 0 % 1025,1 hPa 0,0 l/m 0,0 km/h (0 Bft) SO 135 0 min 0,0 UV-I 7,6 C 9,2 C 0,0 km/h (0 Bft)
29.02.2012 22:10 8,7 C 9,2 C 8,3 C 9,2 C 9,2 C 0,5 C 93 % 95 % 0 % 1025,1 hPa 0,0 l/m 0,2 km/h (0 Bft) SW 225 0 min 0,0 UV-I 7,6 C 9,2 C 1,8 km/h (1 Bft)
29.02.2012 22:15 8,7 C 9,2 C 8,3 C 9,1 C 9,1 C 0,4 C 93 % 95 % 0 % 1025,5 hPa 0,0 l/m 0,2 km/h (0 Bft) W-SW 247 0 min 0,0 UV-I 7,6 C 9,1 C 0,0 km/h (0 Bft)
29.02.2012 22:20 8,5 C 9,2 C 8,3 C 9,1 C 9,1 C 0,6 C 93 % 95 % 0 % 1025,5 hPa 0,0 l/m 0,0 km/h (0 Bft) W-SW 247 0 min 0,0 UV-I 7,4 C 9,1 C 0,0 km/h (0 Bft)
29.02.2012 22:25 8,5 C 9,2 C 8,0 C 9,1 C 9,1 C 0,6 C 93 % 95 % 0 % 1025,5 hPa 0,0 l/m 0,0 km/h (0 Bft) NW 315 0 min 0,0 UV-I 7,4 C 9,1 C 0,0 km/h (0 Bft)
29.02.2012 22:30 8,4 C 9,2 C 8,0 C 9,0 C 9,0 C 0,6 C 93 % 95 % 0 % 1025,5 hPa 0,0 l/m 0,0 km/h (0 Bft) S 180 0 min 0,0 UV-I 7,3 C 9,0 C 0,0 km/h (0 Bft)
29.02.2012 22:35 8,4 C 9,2 C 8,1 C 9,0 C 9,0 C 0,6 C 93 % 95 % 0 % 1025,5 hPa 0,0 l/m 0,0 km/h (0 Bft) W-SW 247 0 min 0,0 UV-I 7,3 C 9,0 C 0,0 km/h (0 Bft)
29.02.2012 22:40 8,4 C 9,2 C 8,0 C 9,0 C 9,0 C 0,6 C 93 % 95 % 0 % 1025,5 hPa 0,0 l/m 0,0 km/h (0 Bft) W 270 0 min 0,0 UV-I 7,3 C 9,0 C 0,0 km/h (0 Bft)
29.02.2012 22:45 8,4 C 9,2 C 8,0 C 9,0 C 9,0 C 0,6 C 93 % 95 % 0 % 1025,5 hPa 0,0 l/m 0,0 km/h (0 Bft) S-SW 202 0 min 0,0 UV-I 7,3 C 9,0 C 0,0 km/h (0 Bft)
29.02.2012 22:50 8,4 C 9,2 C 7,9 C 9,0 C 9,0 C 0,6 C 93 % 95 % 0 % 1025,5 hPa 0,0 l/m 0,0 km/h (0 Bft) O 90 0 min 0,0 UV-I 7,3 C 9,0 C 0,0 km/h (0 Bft)
29.02.2012 22:55 8,4 C 9,2 C 7,9 C 9,0 C 9,0 C 0,6 C 93 % 95 % 0 % 1025,7 hPa 0,0 l/m 0,0 km/h (0 Bft) O 90 0 min 0,0 UV-I 7,3 C 9,0 C 0,0 km/h (0 Bft)
29.02.2012 23:00 8,3 C 9,2 C 7,9 C 9,0 C 9,0 C 0,7 C 92 % 95 % 0 % 1025,7 hPa 0,0 l/m 0,0 km/h (0 Bft) SW 225 0 min 0,0 UV-I 7,1 C 9,0 C 0,0 km/h (0 Bft)
29.02.2012 23:05 8,3 C 9,2 C 7,8 C 9,0 C 9,0 C 0,7 C 93 % 95 % 0 % 1025,7 hPa 0,0 l/m 0,0 km/h (0 Bft) W 270 0 min 0,0 UV-I 7,2 C 9,0 C 0,0 km/h (0 Bft)
29.02.2012 23:10 8,3 C 9,2 C 7,8 C 8,9 C 8,9 C 0,6 C 93 % 95 % 0 % 1025,7 hPa 0,0 l/m 0,0 km/h (0 Bft) NW 315 0 min 0,0 UV-I 7,2 C 8,9 C 0,0 km/h (0 Bft)
29.02.2012 23:15 8,3 C 9,2 C 7,8 C 9,0 C 9,0 C 0,7 C 93 % 95 % 0 % 1025,5 hPa 0,0 l/m 0,0 km/h (0 Bft) W-SW 247 0 min 0,0 UV-I 7,2 C 9,0 C 0,0 km/h (0 Bft)
29.02.2012 23:20 8,2 C 9,2 C 7,8 C 9,0 C 9,0 C 0,8 C 93 % 95 % 0 % 1025,5 hPa 0,7 l/m 0,0 km/h (0 Bft) W-SW 247 0 min 0,0 UV-I 7,1 C 9,0 C 0,0 km/h (0 Bft)
29.02.2012 23:25 8,3 C 9,2 C 7,9 C 9,1 C 9,1 C 0,8 C 93 % 95 % 0 % 1025,5 hPa 0,0 l/m 0,0 km/h (0 Bft) W-SW 247 0 min 0,0 UV-I 7,2 C 9,1 C 0,0 km/h (0 Bft)
29.02.2012 23:30 8,4 C 9,2 C 8,1 C 9,1 C 9,1 C 0,7 C 93 % 95 % 0 % 1025,5 hPa 0,0 l/m 0,0 km/h (0 Bft) SW 225 0 min 0,0 UV-I 7,3 C 9,1 C 0,0 km/h (0 Bft)
29.02.2012 23:35 8,4 C 9,2 C 8,2 C 9,1 C 9,1 C 0,7 C 93 % 95 % 0 % 1025,9 hPa 0,0 l/m 0,0 km/h (0 Bft) W-SW 247 0 min 0,0 UV-I 7,3 C 9,1 C 0,0 km/h (0 Bft)
29.02.2012 23:40 8,4 C 9,2 C 8,0 C 9,1 C 9,1 C 0,7 C 93 % 95 % 0 % 1025,9 hPa 0,0 l/m 0,0 km/h (0 Bft) W-SW 247 0 min 0,0 UV-I 7,3 C 9,1 C 0,0 km/h (0 Bft)
29.02.2012 23:45 8,3 C 9,2 C 7,9 C 9,0 C 9,0 C 0,7 C 93 % 95 % 0 % 1025,9 hPa 0,0 l/m 0,0 km/h (0 Bft) O-NO 67 0 min 0,0 UV-I 7,2 C 9,0 C 0,0 km/h (0 Bft)
29.02.2012 23:50 8,3 C 9,2 C 7,8 C 8,9 C 8,9 C 0,6 C 93 % 95 % 0 % 1025,9 hPa 0,0 l/m 0,0 km/h (0 Bft) O-NO 67 0 min 0,0 UV-I 7,2 C 8,9 C 0,0 km/h (0 Bft)
29.02.2012 23:55 8,3 C 9,2 C 7,8 C 8,9 C 8,9 C 0,6 C 93 % 95 % 0 % 1025,9 hPa 0,0 l/m 0,0 km/h (0 Bft) W-NW 292 0 min 0,0 UV-I 7,2 C 8,9 C 0,0 km/h (0 Bft)
_ Min-Zeit 23:20 00:00 23:05 02:30 02:40 00:00 03:10 03:40 00:00 03:20 - 17:35 - - - 00:00 23:00 02:40 08:50
Minimum _ 8,2 C 8,6 C 7,8 C 8,2 C 7,3 C 0,0 C 90 % 92 % 0 % 1020,8 hPa - 0,0 km/h (0 Bft) - - - 0,0 UV-I 7,1 C 5,4 C 0,0 km/h (0 Bft)
_ Max-Zeit 14:45 15:40 14:50 15:15 15:15 11:20 08:10 13:45 11:20 23:35 23:20 02:55 - - 17:25 00:00 14:45 15:15 03:00
Maximum _ 9,6 C 9,4 C 9,6 C 10,4 C 10,4 C 0,8 C 93 % 95 % 21 % 1025,9 hPa 0,7 l/m 10,1 km/h
W (2 Bft)
- - 5 min 0,0 UV-I 8,5 C 10,4 C 19,6 km/h
W-SW (3 Bft)
Durchschnitt _ 8,9 C 9,1 C 8,7 C 9,3 C 9,1 C 0,4 C 92 % 94 % 7 % 1023,5 hPa #0,7 l/m 3,8 km/h (1 Bft) W-SW - #15 min. 0,0 UV-I 7,7 C 8,7 C 4,8 km/h (1 Bft)
2012 www.wetterstation-wechselburg.de